Location: Godiavel Galaoual
(15.2485°N, 12.6604°W)
Time: 20:44:31
(UTC+00:00)

Transit 4A - All Passes

Search period start: 13 June 2021 00:00
Search period end: 23 June 2021 00:00
Orbit: 871 x 973 km, 66.8° (Epoch: 13 June)

Date Brightness Start Highest point End Pass type
(mag) Time Alt. Az. Time Alt. Az. Time Alt. Az.
13 Jun - 10:14:57 10° S 10:20:50 45° ESE 10:26:34 10° NE daylight
13 Jun - 12:03:14 10° WSW 12:07:07 17° WNW 12:10:57 10° NNW daylight
13 Jun - 21:17:55 10° N 21:23:30 46° ENE 21:29:10 10° SE visible
13 Jun - 23:06:24 10° WNW 23:09:26 14° WSW 23:12:30 10° SW visible
14 Jun - 10:23:52 10° SSW 10:30:04 75° ESE 10:36:07 10° NNE daylight
14 Jun - 21:26:57 10° NNW 21:32:47 79° ENE 21:38:43 10° SSE visible
15 Jun - 08:52:54 10° ESE 08:53:26 10° ESE 08:53:58 10° E daylight
15 Jun - 10:33:10 10° SSW 10:39:20 66° WNW 10:45:19 10° NNE daylight
15 Jun - 19:53:59 10° NE 19:55:36 11° ENE 19:57:12 10° ENE visible
15 Jun - 21:36:16 10° NNW 21:42:01 62° WSW 21:47:54 10° S visible
16 Jun - 08:58:27 10° SSE 09:02:37 19° ESE 09:06:43 10° ENE daylight
16 Jun - 10:42:54 10° SW 10:48:37 39° WNW 10:54:13 10° N daylight
16 Jun - 20:00:54 10° NNE 20:05:03 20° ENE 20:09:12 10° ESE visible
16 Jun - 21:45:57 10° NW 21:51:14 36° WSW 21:56:37 10° S visible
17 Jun - 09:06:24 10° S 09:11:49 32° ESE 09:17:05 10° NE daylight
17 Jun - 10:53:08 10° WSW 10:57:58 24° WNW 11:02:43 10° NNW daylight
17 Jun - 20:09:12 10° N 20:14:24 33° ENE 20:19:40 10° SE visible
17 Jun - 21:56:09 10° WNW 22:00:26 21° WSW 22:04:45 10° SSW visible
18 Jun - 09:15:00 10° S 09:21:01 54° ESE 09:26:53 10° NNE daylight
18 Jun - 11:04:18 10° W 11:07:24 14° WNW 11:10:26 10° NNW daylight
18 Jun - 20:17:59 10° N 20:23:42 56° ENE 20:29:31 10° SE visible
18 Jun - 22:07:44 10° W 22:09:35 11° WSW 22:11:28 10° SW visible
19 Jun - 09:24:03 10° SSW 09:30:16 89° E 09:36:19 10° NNE daylight
19 Jun - 20:27:07 10° NNW 20:32:58 86° WSW 20:38:57 10° SSE visible
20 Jun - 07:50:59 10° SE 07:53:36 13° ESE 07:56:12 10° E daylight
20 Jun - 09:33:30 10° SW 09:39:32 55° WNW 09:45:25 10° N daylight
20 Jun - 18:52:58 10° NNE 18:55:52 14° ENE 18:58:46 10° E daylight
20 Jun - 20:36:33 10° NW 20:42:12 51° WSW 20:47:58 10° S visible
21 Jun - 07:58:06 10° SSE 08:02:47 23° ESE 08:07:24 10° ENE daylight
21 Jun - 09:43:23 10° SW 09:48:51 33° WNW 09:54:11 10° N daylight
21 Jun - 19:00:40 10° NNE 19:05:16 24° ENE 19:09:56 10° ESE daylight
21 Jun - 20:46:23 10° NW 20:51:24 30° WSW 20:56:30 10° SSW visible
22 Jun - 08:06:20 10° S 08:12:00 38° ESE 08:17:31 10° NE daylight
22 Jun - 09:53:53 10° WSW 09:58:13 20° WNW 10:02:29 10° NNW daylight
22 Jun - 19:09:10 10° N 19:14:37 40° ENE 19:20:09 10° SE daylight
22 Jun - 20:56:53 10° WNW 21:00:35 17° WSW 21:04:20 10° SSW visible
